{"data":{"norad_id":67154,"intl_designator":"2025-301X","name":"KUIPER-00249","alt_names":[],"object_type":"PAYLOAD","status":"ACTIVE","operator":null,"country":"US","launch_date":"2025-12-16","launch_site_code":"AFETR","launch_vehicle":null,"mission":null,"orbit_class":"UNKNOWN","rcs_meters":null,"size_class":null,"mass_kg":null,"dimensions":null,"purposes":[],"wikipedia_slug":null,"has_3d_model":false,"image_url":null,"decayed_at":null,"tle_current":{"epoch":"2026-05-25T04:20:45.070080Z","epoch_age_seconds":56064,"freshness":"FRESH","line1":"1 67154U 25301X   26145.18107720  .00003434  00000+0  47950-3 0  9999","line2":"2 67154  51.8998  77.3986 0000818  74.8196 285.2857 14.79908617 25193","mean_motion":14.79908617,"eccentricity":8.18e-5,"inclination_deg":51.8998,"raan_deg":77.3986,"arg_perigee_deg":74.8196,"mean_anomaly_deg":285.2857,"bstar":0.0004795,"rev_number":2519,"period_min":97.303305316182,"perigee_km":629.0393674033,"apogee_km":630.18583523807,"semimajor_km":7007.7496013207,"source":"CELESTRAK","updated_at":"2026-05-25T13:38:06.778784Z"}}}